Zurück zum Katalog

CZ-6A DEB

AktivSSO
NORAD 56675·DEBRIS·🇨🇳 China

Gestartet Nov 11, 2022 von Taiyuan Satellite Launch Center

Loading…

Nächste Überflüge (nächste 24 Stunden)

TLE

AktuellSource: Space-Track

Epoche: Sep 14, 2026, 11:14 UTC

1 56675U 22151AHB 26257.46827548  .00000631  00000-0  36802-3 0  9998
2 56675  98.8819 260.9646 0077791  44.2871 316.4489 14.10595789179476

Verfolge CZ-6A DEB in Echtzeit mit AllMySat

Download on the App Store